• In Kazakhstan
  • List of Countries
  • For 7 days
  • Water Temperature
  • Satellite Maps
  • Weather Map
  • News
  • Weather Widgets
  • user-avatar
    Login

    Hourly Weather Bansdih

    Today, 19 September, Tuesday

    Time Temperature Precipitation Wind Pressure Humidity
    00:00 +30°C° 0 mm 3 mps 747 mmHg 83%
    01:00 +30°C° 0 mm 2 mps 746 mmHg 84%
    02:00 +29°C° 0 mm 2 mps 746 mmHg 85%
    03:00 +29°C° 0 mm 2 mps 745 mmHg 86%
    04:00 +29°C° 0.1 mm 2 mps 746 mmHg 86%
    05:00 +29°C° 0.1 mm 2 mps 746 mmHg 86%
    06:00 +29°C° 0 mm 2 mps 746 mmHg 87%
    07:00 +29°C° 0 mm 2 mps 746 mmHg 84%
    08:00 +30°C° 0 mm 2 mps 746 mmHg 82%
    09:00 +31°C° 0 mm 3 mps 746 mmHg 79%
    10:00 +33°C° 0 mm 3 mps 746 mmHg 72%
    11:00 +35°C° 0 mm 3 mps 746 mmHg 65%
    12:00 +36°C° 0 mm 3 mps 746 mmHg 57%
    13:00 +36°C° 0 mm 3 mps 746 mmHg 56%
    14:00 +37°C° 0 mm 3 mps 745 mmHg 56%
    15:00 +37°C° 0 mm 3 mps 745 mmHg 55%
    16:00 +36°C° 0 mm 3 mps 745 mmHg 58%
    17:00 +36°C° 0 mm 2 mps 744 mmHg 61%
    18:00 +35°C° 0 mm 2 mps 744 mmHg 63%
    19:00 +34°C° 0 mm 2 mps 745 mmHg 65%
    20:00 +32°C° 0 mm 2 mps 745 mmHg 66%
    21:00 +32°C° 0 mm 2 mps 745 mmHg 67%
    22:00 +31°C° 0.6 mm 2 mps 745 mmHg 71%
    23:00 +31°C° 0.6 mm 2 mps 746 mmHg 75%

    Tomorrow, 20 September, Wednesday

    Time Temperature Precipitation Wind Pressure Humidity
    00:00 +30°C° 0.6 mm 2 mps 746 mmHg 78%
    01:00 +30°C° 0.1 mm 2 mps 745 mmHg 80%
    02:00 +29°C° 0.1 mm 2 mps 745 mmHg 82%
    03:00 +29°C° 0.1 mm 2 mps 745 mmHg 85%
    04:00 +29°C° 0.2 mm 2 mps 745 mmHg 85%
    05:00 +29°C° 0.2 mm 2 mps 745 mmHg 86%
    06:00 +29°C° 0.2 mm 2 mps 745 mmHg 87%
    07:00 +29°C° 0.4 mm 3 mps 746 mmHg 84%
    08:00 +30°C° 0.4 mm 3 mps 746 mmHg 81%
    09:00 +32°C° 0.4 mm 4 mps 747 mmHg 78%
    10:00 +32°C° 0.2 mm 4 mps 746 mmHg 76%
    11:00 +33°C° 0.2 mm 5 mps 746 mmHg 74%
    12:00 +34°C° 0.2 mm 6 mps 746 mmHg 71%
    13:00 +34°C° 1.9 mm 6 mps 745 mmHg 71%
    14:00 +34°C° 1.9 mm 7 mps 745 mmHg 72%
    15:00 +34°C° 1.9 mm 8 mps 744 mmHg 72%
    16:00 +33°C° 1.3 mm 7 mps 744 mmHg 75%
    17:00 +32°C° 1.3 mm 6 mps 744 mmHg 77%
    18:00 +32°C° 1.3 mm 5 mps 744 mmHg 80%
    19:00 +30°C° 0.6 mm 6 mps 745 mmHg 81%
    20:00 +30°C° 0.6 mm 6 mps 745 mmHg 82%
    21:00 +30°C° 0.6 mm 6 mps 746 mmHg 83%
    22:00 +29°C° 0.4 mm 6 mps 746 mmHg 84%
    23:00 +29°C° 0.4 mm 6 mps 746 mmHg 86%

    Day after tomorrow, 21 September, Thursday

    Time Temperature Precipitation Wind Pressure Humidity
    00:00 +29°C° 0.4 mm 6 mps 746 mmHg 87%
    01:00 +29°C° 0.8 mm 6 mps 746 mmHg 88%
    02:00 +28°C° 0.8 mm 5 mps 745 mmHg 90%
    03:00 +28°C° 0.8 mm 5 mps 745 mmHg 91%
    04:00 +28°C° 0.5 mm 5 mps 745 mmHg 91%
    05:00 +28°C° 0.5 mm 5 mps 745 mmHg 91%
    06:00 +28°C° 0.5 mm 5 mps 746 mmHg 92%
    07:00 +28°C° 1.1 mm 5 mps 746 mmHg 89%
    08:00 +29°C° 1.1 mm 6 mps 747 mmHg 86%
    09:00 +30°C° 1.1 mm 6 mps 747 mmHg 83%
    10:00 +32°C° 1.7 mm 6 mps 747 mmHg 79%
    11:00 +33°C° 1.7 mm 6 mps 747 mmHg 75%
    12:00 +34°C° 1.7 mm 6 mps 747 mmHg 71%
    13:00 +34°C° 1.8 mm 6 mps 746 mmHg 71%
    14:00 +34°C° 1.8 mm 6 mps 746 mmHg 71%
    15:00 +34°C° 1.8 mm 6 mps 745 mmHg 71%
    16:00 +33°C° 0.4 mm 5 mps 745 mmHg 74%
    17:00 +32°C° 0.4 mm 5 mps 745 mmHg 78%
    18:00 +32°C° 0.4 mm 4 mps 745 mmHg 81%
    19:00 +30°C° 0 mm 4 mps 746 mmHg 82%
    20:00 +30°C° 0 mm 4 mps 746 mmHg 83%
    21:00 +29°C° 0 mm 4 mps 747 mmHg 85%
    22:00 +29°C° 0.7 mm 4 mps 747 mmHg 86%
    23:00 +29°C° 0.7 mm 4 mps 747 mmHg 88%

    22 September, Friday

    Time Temperature Precipitation Wind Pressure Humidity
    00:00 +29°C° 0.7 mm 3 mps 747 mmHg 89%
    01:00 +29°C° 2.3 mm 3 mps 746 mmHg 88%
    02:00 +29°C° 2.3 mm 3 mps 746 mmHg 88%
    03:00 +29°C° 2.3 mm 3 mps 746 mmHg 87%
    04:00 +28°C° 2.1 mm 3 mps 746 mmHg 87%
    05:00 +28°C° 2.1 mm 3 mps 746 mmHg 87%
    06:00 +28°C° 2.1 mm 3 mps 746 mmHg 88%
    07:00 +29°C° 0.7 mm 3 mps 747 mmHg 85%
    08:00 +30°C° 0.7 mm 4 mps 748 mmHg 83%
    09:00 +32°C° 0.7 mm 4 mps 748 mmHg 81%
    10:00 +33°C° 1.3 mm 4 mps 748 mmHg 76%
    11:00 +34°C° 1.3 mm 4 mps 748 mmHg 72%
    12:00 +35°C° 1.3 mm 4 mps 748 mmHg 67%
    13:00 +35°C° 0.9 mm 4 mps 747 mmHg 67%
    14:00 +35°C° 0.9 mm 4 mps 747 mmHg 66%
    15:00 +35°C° 0.9 mm 3 mps 746 mmHg 66%
    16:00 +35°C° 0.1 mm 3 mps 746 mmHg 69%
    17:00 +34°C° 0.1 mm 3 mps 745 mmHg 73%
    18:00 +32°C° 0.1 mm 2 mps 745 mmHg 77%
    19:00 +32°C° 0 mm 2 mps 746 mmHg 78%
    20:00 +31°C° 0 mm 2 mps 746 mmHg 79%
    21:00 +30°C° 0 mm 2 mps 747 mmHg 80%
    22:00 +30°C° 0.3 mm 2 mps 747 mmHg 81%
    23:00 +30°C° 0.3 mm 2 mps 747 mmHg 82%

    23 September, Saturday

    Time Temperature Precipitation Wind Pressure Humidity
    00:00 +30°C° 0.3 mm 2 mps 747 mmHg 83%
    01:00 +29°C° 0.5 mm 2 mps 747 mmHg 85%
    02:00 +29°C° 0.5 mm 1 mps 747 mmHg 86%
    03:00 +29°C° 0.5 mm 1 mps 746 mmHg 87%
    04:00 +29°C° 0 mm 1 mps 747 mmHg 88%
    05:00 +28°C° 0 mm 1 mps 747 mmHg 88%
    06:00 +28°C° 0 mm 1 mps 747 mmHg 88%
    07:00 +29°C° 0 mm 1 mps 748 mmHg 83%
    08:00 +31°C° 0 mm 1 mps 748 mmHg 78%
    09:00 +32°C° 0 mm 2 mps 749 mmHg 73%
    10:00 +34°C° 0.2 mm 2 mps 749 mmHg 69%
    11:00 +35°C° 0.2 mm 2 mps 749 mmHg 65%
    12:00 +35°C° 0.2 mm 1 mps 749 mmHg 61%
    13:00 +35°C° 0.1 mm 1 mps 748 mmHg 60%
    14:00 +35°C° 0.1 mm 1 mps 747 mmHg 60%
    15:00 +35°C° 0.1 mm 1 mps 746 mmHg 59%
    16:00 +35°C° 0.1 mm 1 mps 746 mmHg 62%
    17:00 +34°C° 0.1 mm 1 mps 746 mmHg 66%
    18:00 +33°C° 0.1 mm 1 mps 746 mmHg 69%
    19:00 +33°C° 0.1 mm 1 mps 747 mmHg 71%
    20:00 +32°C° 0.1 mm 1 mps 747 mmHg 72%
    21:00 +31°C° 0.1 mm 1 mps 748 mmHg 74%
    22:00 +31°C° 0.1 mm 1 mps 748 mmHg 75%
    23:00 +31°C° 0.1 mm 1 mps 748 mmHg 76%

    24 September, Sunday

    Time Temperature Precipitation Wind Pressure Humidity
    00:00 +30°C° 0.1 mm 1 mps 748 mmHg 77%
    01:00 +30°C° 0.2 mm 1 mps 747 mmHg 78%
    02:00 +30°C° 0.2 mm 1 mps 747 mmHg 80%
    03:00 +29°C° 0.2 mm 1 mps 747 mmHg 81%
    04:00 +29°C° 0.1 mm 1 mps 747 mmHg 82%
    05:00 +29°C° 0.1 mm 1 mps 747 mmHg 82%
    06:00 +29°C° 0.1 mm 1 mps 748 mmHg 83%
    07:00 +30°C° 0 mm 1 mps 748 mmHg 78%
    08:00 +31°C° 0 mm 1 mps 749 mmHg 74%
    09:00 +32°C° 0 mm 1 mps 749 mmHg 69%
    10:00 +33°C° 0 mm 1 mps 749 mmHg 65%
    11:00 +34°C° 0 mm 1 mps 749 mmHg 60%
    12:00 +36°C° 0 mm 1 mps 748 mmHg 56%
    13:00 +36°C° 0 mm 1 mps 748 mmHg 54%
    14:00 +36°C° 0 mm 1 mps 747 mmHg 53%
    15:00 +36°C° 0 mm 1 mps 746 mmHg 52%
    16:00 +35°C° 0 mm 1 mps 746 mmHg 56%
    17:00 +35°C° 0 mm 1 mps 746 mmHg 60%
    18:00 +34°C° 0 mm 1 mps 746 mmHg 64%
    19:00 +33°C° 0 mm 1 mps 746 mmHg 64%
    20:00 +33°C° 0 mm 1 mps 747 mmHg 65%
    21:00 +32°C° 0 mm 1 mps 747 mmHg 66%
    22:00 +32°C° 0 mm 1 mps 747 mmHg 67%
    23:00 +32°C° 0 mm 1 mps 747 mmHg 68%
    Show more